GEFSSE_con_prob3kmehi_174.txt.gz
EHI
6 8 8 5 4 5 12 26 37 43 44 42 34 25 18 14 9 5 4 3 2 1 0 1 1 2 1 1 0 0 0 0 1 2 2 1 0 0 0 0 0 2 6
8 9 9 7 7 10 19 31 41 47 48 44 37 28 20 15 10 6 4 3 2 1 1 2 2 2 3 2 1 0 0 0 0 1 1 0 0 0 0 0 0 1 3
12 11 10 10 11 16 25 36 43 47 47 43 36 29 21 14 10 6 4 3 3 1 1 2 3 3 4 4 2 0 0 0 0 0 0 0 0 0 0 0 0 0 1
17 15 12 13 16 19 26 34 39 41 40 37 32 26 20 14 8 5 3 3 3 2 1 2 3 3 3 3 2 0 0 0 0 0 0 0 0 0 0 0 0 0 0
18 16 15 14 16 20 24 29 32 32 32 31 27 22 17 12 7 4 3 3 4 3 1 1 2 2 1 1 1 0 0 0 0 0 0 0 0 1 0 0 0 0 0
15 15 15 15 15 17 20 24 26 26 28 28 24 19 15 9 5 4 4 4 5 5 3 2 2 2 1 0 0 0 0 0 0 0 0 0 1 3 2 0 0 0 0
10 12 14 14 14 13 16 20 23 24 26 27 24 20 16 10 6 6 7 7 7 7 6 4 3 2 1 0 0 0 0 0 0 0 0 0 1 3 2 0 0 0 0
8 9 11 12 11 11 14 19 23 25 26 26 25 21 18 13 9 9 9 8 6 6 7 5 4 3 1 0 0 0 0 0 0 0 0 1 2 3 2 1 0 0 1
9 9 9 9 9 10 12 17 22 25 25 24 22 19 16 13 9 8 8 7 6 5 6 6 4 2 1 0 0 0 0 0 0 0 0 2 4 4 2 1 0 0 1
11 10 10 9 8 8 9 11 15 19 20 20 18 14 12 10 7 5 6 6 6 6 6 6 5 3 2 1 1 0 0 0 0 0 0 2 5 4 2 1 1 1 1
13 11 10 9 8 6 5 6 8 11 12 13 11 10 9 8 6 5 6 7 6 6 6 6 6 5 4 2 1 1 0 0 0 0 2 5 6 3 1 1 1 1 1
15 13 10 8 7 6 6 7 7 8 9 7 7 8 9 9 7 6 7 7 5 5 6 7 7 5 3 2 1 1 0 0 0 0 4 10 8 3 1 1 2 3 3
18 16 11 8 7 8 10 10 9 10 10 7 6 8 10 11 10 10 10 8 6 5 5 7 7 4 2 1 2 1 0 0 1 3 8 12 9 3 1 2 4 4 3
18 16 12 10 10 11 13 13 12 12 11 9 8 9 12 15 16 17 16 13 9 7 6 7 6 4 2 2 2 1 0 0 2 7 11 11 8 4 2 2 4 4 3
18 16 13 12 13 15 16 16 14 12 11 12 12 12 14 18 20 21 19 16 11 8 8 8 6 4 4 4 3 1 0 0 1 6 10 9 7 5 3 2 2 2 2
20 18 14 12 13 15 16 16 14 12 13 14 14 14 15 19 21 20 18 15 10 7 7 7 6 6 5 4 3 2 1 1 1 3 5 6 5 4 3 2 2 3 2
21 19 14 11 11 13 15 15 15 15 16 15 13 12 12 15 16 16 14 12 7 3 3 4 5 6 5 3 1 1 2 3 2 1 2 3 3 2 2 3 3 3 3
21 19 15 12 12 14 16 16 16 18 18 14 11 10 10 10 10 10 11 10 7 4 3 3 4 5 5 3 1 0 1 3 2 1 1 1 1 0 1 3 3 2 2
20 19 19 18 19 20 20 18 17 18 17 13 9 8 7 6 5 5 6 7 7 5 4 3 4 5 5 3 1 0 0 1 1 0 1 1 0 0 1 3 2 1 0
22 24 25 26 26 24 21 19 17 16 13 9 6 5 3 2 1 1 2 3 5 5 4 3 4 5 5 3 1 0 0 0 0 0 1 2 1 0 1 1 1 0 0
26 29 30 29 27 24 20 17 16 13 9 5 3 2 1 0 0 0 0 2 3 5 4 3 4 5 4 2 1 0 0 0 0 0 1 2 1 0 0 1 0 0 0
28 32 33 30 25 21 17 15 13 11 8 4 2 1 0 0 0 0 0 1 3 4 3 4 4 4 4 3 2 2 1 0 0 0 1 2 2 1 0 0 0 0 0
32 31 31 30 25 20 16 13 11 8 6 3 2 1 1 0 0 0 0 2 3 3 3 4 5 5 5 6 5 4 2 1 0 0 0 1 2 2 0 0 0 0 0
32 31 29 27 23 17 14 13 10 6 3 2 3 3 1 0 0 0 1 3 3 3 3 4 6 6 6 7 8 6 3 1 0 0 0 0 1 1 0 0 0 0 0
28 29 28 24 18 13 12 13 12 6 2 2 2 3 1 0 1 1 2 4 4 3 3 5 6 5 4 6 7 6 4 3 1 0 0 0 0 0 0 0 0 0 0
25 26 27 21 15 11 11 12 11 7 3 1 1 1 1 1 2 3 4 5 4 3 4 5 5 3 2 3 5 5 4 4 2 1 0 0 0 0 0 0 1 1 1

GEFSSE_con_prob3kmehi_180.txt.gz
EHI
23 23 26 23 16 12 7 3 0 0 0 0 1 2 3 3 4 5 6 6 6 5 3 2 1 0 0 0 0 0 1 2 2 1 1 2 2 2 1 1 1 2 4
26 25 27 25 17 13 9 5 2 1 0 0 1 3 4 4 4 5 5 5 6 4 2 1 0 0 0 0 0 0 0 1 1 0 0 1 1 2 3 2 1 2 3
26 25 27 26 19 15 13 9 5 3 1 1 2 3 5 5 5 4 4 4 4 3 1 1 1 1 0 0 0 0 0 0 0 0 0 0 2 5 5 2 2 2 3
23 24 28 28 22 18 16 13 8 4 2 2 3 3 5 6 6 5 3 3 2 1 1 1 2 1 0 0 0 0 0 0 0 0 0 0 5 9 7 3 3 4 4
21 26 32 32 26 21 18 14 10 6 4 4 4 4 4 5 5 4 3 2 1 0 1 1 1 1 0 0 0 1 1 0 0 0 0 2 9 13 8 3 4 5 6
22 26 33 35 31 24 18 15 11 9 7 6 5 4 4 4 4 3 3 2 1 1 1 0 0 0 0 0 0 0 1 1 2 2 2 6 15 17 10 4 4 6 6
27 28 33 36 34 26 20 15 12 10 9 8 6 5 4 4 3 3 3 3 2 1 1 0 0 0 0 1 1 1 1 2 3 3 3 10 22 23 14 8 7 6 6
32 31 30 30 30 27 21 16 13 11 10 8 7 6 6 5 4 4 4 2 1 1 1 0 0 1 2 2 3 2 2 2 1 1 3 12 26 28 19 13 10 8 7
32 30 24 20 21 23 19 14 12 11 9 8 7 6 6 6 4 4 4 2 0 1 1 2 2 3 3 3 3 3 2 1 0 0 2 14 30 33 24 16 12 10 9
34 29 21 15 14 14 12 10 9 9 8 7 7 6 6 5 4 3 4 4 2 2 3 4 5 5 4 3 3 3 2 1 0 0 3 17 35 37 26 17 12 11 11
39 33 24 18 12 8 8 8 7 6 7 7 6 6 5 4 3 3 6 9 8 4 5 6 5 5 5 3 3 3 2 0 0 1 7 22 36 36 26 16 12 11 11
44 38 30 23 15 10 13 14 10 7 8 8 8 8 7 4 4 5 11 15 11 6 6 6 6 6 5 3 2 2 2 1 1 3 11 26 33 29 23 15 11 10 9
45 40 33 27 22 19 22 22 16 14 16 13 12 14 12 7 8 13 19 18 11 6 8 9 9 8 6 4 2 2 2 1 1 5 15 26 29 23 19 14 10 10 11
47 42 36 33 31 31 31 28 23 24 24 20 18 21 18 13 14 21 24 21 15 12 14 14 11 9 7 6 5 3 1 2 3 6 15 25 25 19 15 12 8 9 11
51 46 40 38 39 41 39 33 29 30 29 26 25 26 24 22 21 22 23 21 19 18 18 15 11 9 8 7 7 5 3 5 8 9 14 23 22 15 12 10 8 8 9
57 51 44 42 44 45 43 38 34 33 33 33 32 31 30 29 27 24 22 20 18 18 17 13 9 9 8 6 6 6 6 8 11 11 13 19 18 13 11 12 10 9 8
59 56 49 44 45 47 46 42 38 36 35 37 39 36 33 32 29 26 23 20 17 17 17 13 8 7 7 6 6 7 8 9 11 10 11 13 13 11 12 13 12 10 8
59 58 51 45 46 50 50 47 44 40 38 40 42 39 32 28 27 26 25 21 17 17 17 12 7 6 6 6 7 8 9 11 11 9 9 9 9 9 10 11 10 8 7
57 56 50 45 46 49 50 50 48 45 43 43 44 39 30 24 21 22 22 20 15 14 12 8 6 7 7 7 6 6 6 9 10 9 8 8 8 8 6 5 5 4 4
51 50 48 46 45 45 47 49 48 46 45 45 43 37 28 20 17 17 17 14 11 9 7 5 5 6 8 7 5 3 3 4 7 9 9 8 6 5 4 3 3 3 2
48 47 47 47 46 46 46 46 45 44 43 42 39 32 24 18 15 13 11 8 7 6 4 3 3 4 5 7 6 3 1 1 3 8 9 6 4 3 3 3 4 5 4
50 48 46 48 48 47 46 44 42 39 37 35 33 27 21 16 13 10 8 7 6 6 4 3 4 3 4 7 8 5 2 1 2 5 6 5 3 3 3 4 6 7 6
49 46 44 45 46 45 43 40 37 35 32 30 28 25 21 15 11 8 7 7 8 7 5 5 6 6 6 7 9 7 4 1 1 2 3 3 3 3 3 3 4 5 6
42 41 40 42 43 42 39 37 34 32 30 28 27 26 21 14 9 7 7 7 8 7 6 6 7 7 7 7 9 9 6 2 0 1 2 2 2 2 2 2 2 3 3
37 37 38 40 40 38 36 34 32 29 27 27 27 24 18 12 8 6 6 6 7 7 7 7 7 7 6 5 6 7 5 2 0 0 1 1 1 1 1 1 0 1 1
35 35 37 38 38 37 35 33 30 27 26 26 25 20 15 11 8 6 6 6 7 7 7 7 6 6 5 4 4 4 3 1 0 0 0 0 1 1 1 0 0 0 0

GEFSSE_con_prob3kmehi_186.txt.gz
EHI
4 9 18 24 25 22 17 11 8 7 7 10 13 13 14 19 20 19 19 18 14 10 5 2 1 0 0 0 0 0 0 0 0 0 0 0 0 0 1 3 2 3 8
7 11 21 27 27 23 18 13 9 7 6 7 9 10 11 14 16 16 16 14 11 7 5 3 2 1 0 0 0 0 0 0 0 0 0 0 0 0 0 1 1 2 4
15 16 24 32 32 26 20 16 12 7 3 3 5 5 5 7 11 12 12 10 7 5 4 3 2 1 0 0 0 0 0 0 0 0 0 0 0 0 1 1 1 2 3
24 22 26 34 36 29 23 19 15 8 2 1 3 3 3 4 6 8 8 7 5 3 2 1 1 0 0 0 0 0 0 0 1 1 1 0 0 1 2 2 1 1 2
28 26 28 36 38 33 27 21 15 9 3 2 3 3 3 3 4 4 4 3 2 1 1 0 0 0 0 0 0 0 0 1 3 4 2 1 1 2 3 1 0 0 1
30 28 30 37 39 36 31 23 16 10 5 3 3 3 2 2 2 2 2 1 0 0 0 0 0 0 0 0 0 0 0 1 3 4 3 1 1 2 3 2 1 0 1
30 28 30 36 38 37 33 25 19 13 8 4 2 2 2 1 1 2 2 1 0 0 0 0 0 0 0 0 0 0 0 0 1 1 1 1 1 3 5 5 4 2 1
31 28 29 32 35 36 34 27 21 17 12 7 4 3 2 2 2 2 2 1 0 0 0 0 0 0 0 0 0 0 0 0 0 0 0 1 3 6 8 7 5 3 2
28 27 27 27 29 31 29 26 22 17 15 12 8 4 3 3 3 3 1 0 0 1 1 0 0 0 0 0 0 0 0 0 0 0 0 0 4 10 11 8 4 3 3
22 23 24 24 23 21 20 19 16 15 16 15 10 6 5 4 3 2 1 0 1 2 1 0 0 0 0 0 0 0 0 0 0 0 0 0 4 10 11 8 5 3 2
18 18 19 20 18 15 13 12 11 12 13 12 9 8 6 4 3 1 0 0 1 2 1 0 0 0 0 0 0 0 0 0 0 0 0 0 3 7 8 8 8 5 4
18 17 16 16 16 14 13 13 11 9 9 7 5 5 5 3 2 1 0 0 1 1 0 0 0 0 0 1 1 1 1 1 0 0 0 0 2 4 6 7 8 7 6
19 17 15 15 14 14 15 15 11 7 6 3 2 2 2 1 1 0 0 0 0 0 0 0 0 0 0 0 1 2 2 1 0 0 0 1 2 4 5 6 7 7 6
24 19 16 13 11 11 13 13 8 5 3 2 1 1 1 0 0 0 0 0 0 0 0 0 0 0 0 0 1 2 2 1 0 0 0 2 6 7 6 6 6 5 4
29 23 18 14 10 10 11 9 5 3 3 2 1 1 0 0 0 0 0 0 0 0 0 0 0 0 0 0 0 1 1 1 0 0 0 3 8 9 6 5 4 4 4
33 28 24 20 16 14 12 8 5 5 4 3 2 2 1 1 1 1 0 0 0 0 0 0 0 0 0 0 0 0 0 0 0 0 0 2 6 8 6 4 4 4 4
36 35 33 28 24 20 15 11 9 8 7 6 5 4 4 4 3 2 1 0 0 0 0 0 0 0 0 0 0 0 0 0 0 0 0 0 2 4 4 4 4 4 4
38 40 38 34 29 25 21 16 14 13 12 10 9 9 9 7 5 4 2 1 0 0 0 0 0 0 0 0 0 0 0 0 0 0 0 0 0 1 2 2 3 4 3
37 39 38 34 31 29 25 21 18 17 16 14 12 11 11 9 6 5 3 1 0 0 0 0 0 0 0 0 0 0 0 0 0 0 0 0 0 0 0 1 1 1 1
33 34 34 33 32 31 29 26 21 18 16 13 10 10 9 8 6 4 3 1 1 0 0 0 0 0 0 0 0 0 0 0 0 0 0 0 0 0 0 0 0 0 0
30 30 29 30 31 32 31 27 22 18 14 11 8 7 6 4 4 3 3 3 2 1 1 0 0 0 0 0 0 0 0 0 0 0 0 0 0 0 0 0 0 0 0
29 28 27 27 29 30 29 26 21 16 13 11 9 7 5 4 4 4 3 3 3 3 2 1 0 0 0 0 0 0 0 0 0 0 0 0 0 0 0 0 0 0 0
26 26 26 25 28 29 28 26 22 17 14 12 10 9 7 6 6 5 4 3 3 3 3 2 1 0 0 0 0 0 0 0 0 0 0 0 0 0 0 0 0 0 0
24 26 26 26 27 28 27 26 23 19 15 12 10 9 7 6 6 6 5 4 3 3 3 3 1 0 0 0 0 0 0 0 0 0 0 0 0 0 0 0 0 0 0
25 25 26 25 25 25 25 25 22 18 14 10 8 8 7 6 6 6 6 4 3 3 3 3 2 1 0 0 0 0 0 0 0 0 0 0 0 0 0 0 0 0 0
25 25 25 25 24 23 23 23 20 17 13 9 7 7 6 6 6 6 6 5 4 3 3 3 2 1 0 0 0 0 0 0 0 0 0 0 0 0 0 0 0 0 0

GEFSSE_con_prob3kmehi_192.txt.gz
EHI
2 7 13 16 17 19 26 35 43 51 55 55 53 50 44 37 32 27 24 21 16 10 7 7 6 6 6 4 1 0 0 0 0 0 0 0 0 0 0 0 0 0 0
5 9 15 18 19 22 27 33 40 45 49 50 49 46 40 36 32 28 25 21 17 12 8 6 5 5 4 2 1 0 0 0 0 0 0 0 0 0 0 0 0 0 0
9 11 15 19 23 26 31 34 36 38 40 41 42 40 36 32 30 28 25 21 17 14 10 6 4 3 2 1 0 0 0 0 0 0 0 0 0 1 1 1 0 0 0
11 10 14 22 28 32 35 36 36 35 34 34 35 34 31 28 26 24 22 19 17 15 12 6 3 2 2 1 0 0 0 0 0 0 0 0 0 1 2 2 1 0 0
12 10 16 28 36 38 38 37 37 35 31 29 30 30 28 24 22 20 18 16 14 12 10 5 2 1 1 1 0 0 0 0 0 0 0 0 0 1 1 2 2 0 0
13 13 20 32 39 39 39 38 37 35 30 27 27 27 24 20 17 15 13 12 11 9 6 4 1 0 0 0 0 0 0 0 0 0 0 0 0 0 2 3 2 0 0
18 17 24 35 41 40 39 39 38 34 30 27 26 24 20 14 10 9 9 9 8 6 4 2 0 0 0 0 0 0 0 0 0 0 0 0 0 1 3 5 4 2 1
24 25 28 36 41 40 39 40 39 35 32 27 24 22 16 10 6 6 7 8 6 3 1 0 0 0 0 0 0 0 0 0 0 0 0 1 3 4 5 5 5 3 2
29 30 31 34 37 37 36 38 38 36 31 25 21 19 15 9 6 6 6 6 4 2 1 0 0 0 0 0 0 0 0 0 0 0 0 2 5 7 6 4 5 4 3
27 29 30 30 30 29 29 32 35 33 28 22 18 16 14 10 6 6 6 4 3 3 2 1 1 0 0 0 0 0 0 1 1 1 1 1 3 5 5 4 4 5 4
23 24 24 24 23 22 23 25 28 26 22 18 15 14 12 8 6 5 4 3 2 2 2 2 2 1 0 0 0 0 0 1 2 2 2 1 0 1 2 3 4 4 5
18 18 17 18 19 20 21 22 22 19 15 12 11 11 9 6 4 2 1 1 1 1 1 1 1 1 0 0 0 0 0 1 2 3 2 1 0 0 0 2 3 3 4
17 16 15 16 17 18 19 20 18 14 11 10 10 9 7 4 2 1 0 0 0 0 0 0 0 0 0 0 0 0 0 0 1 2 2 1 1 1 0 1 1 2 3
18 16 16 16 16 16 16 17 17 14 11 10 10 9 6 3 1 0 0 0 0 0 0 0 0 0 0 0 0 0 0 0 0 1 2 1 1 1 0 0 1 1 1
15 15 16 17 16 16 15 15 16 14 11 9 9 8 5 2 0 0 0 0 0 0 0 0 0 0 0 0 0 0 0 0 0 1 1 1 1 1 0 0 1 1 1
12 13 15 16 16 16 15 14 14 13 11 9 7 5 3 1 0 0 0 0 0 0 0 0 0 0 0 0 0 0 0 0 0 0 0 0 0 0 0 1 2 1 1
12 13 14 15 15 15 14 13 13 12 10 8 5 2 1 0 0 0 0 0 0 0 0 0 0 0 0 0 0 0 0 0 0 0 0 0 0 0 0 1 1 1 0
14 13 13 14 15 15 14 13 12 11 9 7 3 1 0 0 0 0 0 0 0 0 0 0 0 0 0 0 0 0 0 0 0 0 0 0 0 0 0 0 1 1 0
19 16 14 14 15 15 14 13 11 10 8 5 2 0 0 0 0 0 0 0 0 0 0 0 0 0 0 0 0 0 0 0 0 0 0 0 0 0 0 0 0 1 1
22 20 17 17 17 17 16 14 12 10 7 4 1 0 0 0 0 0 0 0 0 0 0 0 0 0 0 0 0 0 0 0 0 0 0 0 0 0 0 0 0 0 0
24 22 20 19 20 20 19 18 16 12 8 5 3 1 1 0 0 0 0 0 0 0 0 0 0 0 0 0 0 0 0 0 0 0 0 0 0 0 0 0 0 0 0
25 24 22 21 21 21 21 19 18 14 9 6 5 3 2 1 2 2 2 1 1 1 0 0 0 0 0 0 0 0 0 0 0 0 0 0 0 0 0 0 0 0 0
22 22 21 20 20 20 19 18 16 13 9 8 7 5 3 2 3 3 3 3 2 2 1 0 0 0 0 0 0 0 0 0 0 0 0 0 0 0 0 0 0 0 0
16 17 17 18 19 18 17 15 13 11 10 9 8 6 4 3 3 3 3 3 3 3 2 1 0 0 0 0 0 0 0 0 0 0 0 0 0 0 0 0 0 0 0
13 14 15 16 16 16 15 15 12 10 10 8 6 6 4 4 3 3 3 3 3 3 3 2 1 0 0 0 0 0 0 0 0 0 0 0 0 0 0 0 0 0 0
13 14 14 14 13 13 14 14 12 9 8 6 4 4 4 4 4 3 3 3 3 3 3 3 2 1 0 0 0 0 0 0 0 0 0 0 0 0 0 0 0 0 0

GEFSSE_con_prob3kmehi_198.txt.gz
EHI
10 16 23 20 13 13 19 24 27 30 34 35 30 22 16 12 10 8 6 5 4 3 3 4 3 2 1 2 3 4 2 2 2 2 1 0 0 0 0 0 0 1 1
12 17 24 22 17 15 19 26 30 32 36 36 31 24 18 13 11 10 8 7 5 4 3 4 4 2 2 2 3 3 3 2 2 1 0 0 0 0 0 0 0 1 3
14 18 24 25 21 18 21 28 33 35 37 36 31 27 22 17 14 13 12 10 7 5 4 4 3 1 1 1 1 2 2 2 2 1 1 0 1 1 1 1 1 2 3
15 19 24 27 25 21 23 28 32 33 34 34 32 29 25 20 16 14 13 12 9 7 5 4 2 1 0 0 0 1 1 1 1 1 1 1 1 2 2 2 1 1 1
15 20 27 29 26 22 23 27 31 33 33 34 33 30 25 19 14 13 13 12 10 8 6 5 3 2 0 0 0 0 0 0 0 0 0 1 3 5 5 2 1 0 0
14 19 26 29 26 23 23 26 31 33 34 34 34 31 24 15 11 10 11 10 9 7 6 5 4 2 0 0 0 0 0 0 0 0 0 0 3 7 7 3 1 0 1
11 16 24 28 26 23 24 26 30 33 33 33 34 31 22 13 10 9 9 8 6 4 4 4 3 1 0 0 0 0 0 0 0 0 0 1 4 7 6 4 2 2 2
10 15 23 26 24 21 22 24 26 29 30 31 30 26 20 14 10 8 7 6 4 3 3 3 1 1 1 0 0 0 0 0 0 0 0 1 4 5 4 4 4 4 4
12 14 19 22 20 18 18 20 21 23 24 25 24 20 16 13 9 7 7 7 6 4 4 3 2 1 1 0 0 1 1 1 0 0 0 1 4 4 3 4 5 5 4
17 17 18 19 18 16 15 18 20 20 18 18 17 15 12 10 8 8 9 10 8 5 5 5 5 3 1 1 2 2 2 1 0 0 1 2 4 4 2 3 5 4 2
24 24 22 21 19 15 14 19 21 20 17 15 13 11 9 8 8 9 10 11 8 5 4 5 5 4 2 2 3 4 3 1 1 2 3 4 3 2 1 3 4 4 3
30 28 25 24 21 18 18 20 20 20 18 14 11 10 8 8 9 10 11 11 8 4 3 4 4 3 2 1 2 3 3 2 3 3 4 5 2 1 1 2 3 3 3
32 30 26 23 22 21 23 23 21 21 20 16 12 11 9 9 10 10 11 12 9 5 4 4 4 2 1 0 1 2 2 3 3 2 3 3 2 1 2 2 2 2 2
30 28 24 22 22 22 24 25 25 24 22 18 15 13 10 10 10 11 12 13 11 7 5 5 5 3 1 1 0 1 2 2 2 1 1 2 1 1 1 1 1 1 2
26 24 21 21 22 24 25 26 26 26 24 20 17 13 10 9 9 10 12 13 11 9 8 8 8 6 4 3 2 1 2 2 2 1 1 1 0 0 0 0 0 1 1
23 22 20 20 24 27 27 26 25 25 23 19 16 14 11 10 10 11 12 13 12 11 12 12 11 9 8 6 4 3 2 2 1 0 0 0 0 0 0 0 0 0 0
22 21 19 19 23 27 28 26 25 24 21 17 15 15 16 15 15 15 14 14 15 15 16 16 14 11 10 9 7 5 2 1 0 0 0 0 0 0 0 0 0 0 0
20 20 18 17 20 26 28 27 26 25 23 19 16 17 19 20 20 20 19 18 18 18 17 15 13 11 10 9 8 6 3 2 1 0 0 0 0 0 1 1 0 0 0
18 20 21 17 18 23 26 27 26 24 22 20 19 19 20 22 22 22 21 20 19 16 12 7 6 8 8 7 6 5 3 2 1 0 0 0 0 0 1 2 1 0 0
21 24 25 23 21 23 25 25 23 22 19 19 19 19 19 20 21 21 20 20 17 12 6 2 1 4 5 5 3 2 1 1 1 0 0 0 0 0 1 2 3 2 1
24 27 30 29 28 28 28 25 23 21 19 18 19 19 18 17 17 17 17 17 15 11 7 3 1 1 2 2 2 0 0 0 0 0 0 0 0 0 0 2 3 2 2
25 28 32 33 32 33 32 28 24 23 21 20 19 20 19 16 14 13 13 15 14 12 9 6 4 2 1 1 1 0 0 0 1 0 0 0 0 1 2 2 2 1 1
24 27 31 33 33 33 32 28 25 24 23 21 22 23 21 17 13 11 11 13 13 11 9 9 7 4 1 0 0 0 0 1 1 0 0 0 1 2 3 3 2 1 1
22 23 27 31 33 32 29 26 24 23 22 21 22 21 18 14 11 9 10 12 12 10 9 9 8 4 1 0 0 1 1 1 1 0 0 0 0 2 3 3 3 3 2
18 20 24 29 32 32 28 25 23 21 21 21 19 16 13 12 10 8 9 10 11 10 9 9 8 5 2 1 1 1 1 1 1 0 0 0 0 1 3 5 5 4 4
16 19 22 27 30 31 29 26 23 21 21 21 18 14 11 10 10 8 8 9 11 10 10 10 9 6 3 2 2 2 1 1 0 0 0 0 0 1 3 6 6 5 4

GEFSSE_con_prob3kmehi_204.txt.gz
EHI
48 45 46 42 32 24 13 4 0 0 0 0 0 0 0 1 3 6 6 5 4 4 3 1 0 0 0 0 0 0 0 2 4 4 4 3 1 0 1 1 2 5 9
51 48 48 44 34 24 14 5 1 0 0 0 0 0 0 1 2 4 5 4 4 3 3 2 1 0 0 0 0 0 0 2 3 3 2 2 1 1 1 1 3 7 10
49 47 47 45 36 26 17 9 3 2 2 1 0 0 0 0 1 2 3 3 3 3 3 3 2 0 0 0 0 0 0 1 1 1 1 1 1 2 2 2 4 8 10
46 44 45 45 38 29 21 14 9 7 6 4 3 2 1 0 0 1 3 3 3 3 3 3 1 0 0 0 0 1 0 0 0 1 1 1 3 6 6 3 4 6 6
46 45 47 47 41 32 24 19 14 11 9 8 6 5 3 1 2 3 4 4 3 3 3 2 1 0 0 0 0 0 0 0 0 0 0 3 9 13 11 6 3 3 4
47 48 49 50 46 37 29 24 20 16 13 11 10 7 5 4 5 7 7 6 5 4 4 3 1 0 0 0 0 0 0 0 1 1 1 4 13 20 15 6 2 2 4
49 50 50 51 49 42 36 31 25 21 18 15 12 9 8 8 8 9 9 9 8 7 5 3 1 0 0 0 0 0 0 0 1 2 2 6 15 23 18 9 4 3 4
48 49 49 47 45 41 39 35 29 25 22 19 15 11 12 12 11 9 10 10 11 9 7 5 2 0 0 0 0 0 0 1 1 1 2 7 18 25 22 14 9 6 5
43 46 45 40 37 36 37 35 30 27 26 22 18 15 15 14 11 9 9 11 12 12 9 6 4 2 0 0 0 0 0 1 0 0 1 9 22 29 25 17 11 8 7
42 43 39 34 30 29 30 30 28 26 26 23 19 17 15 12 8 6 7 10 13 13 11 8 6 5 3 1 1 1 1 0 0 0 3 13 26 31 25 16 9 7 6
44 42 37 31 27 23 22 25 25 24 24 21 18 16 12 8 5 5 8 13 16 14 12 9 8 8 6 2 1 2 1 0 0 1 6 17 27 28 22 15 9 7 6
46 43 37 32 27 21 20 24 25 23 21 19 16 15 11 8 6 6 11 18 21 18 13 10 9 8 5 2 3 5 4 1 0 1 8 18 24 23 18 13 11 9 7
48 44 39 35 30 25 25 26 25 24 23 19 17 17 15 11 10 11 16 20 22 20 16 13 11 7 4 3 6 9 7 3 1 2 8 16 20 18 15 13 11 10 8
49 46 42 40 38 37 36 31 26 26 26 23 21 22 20 16 15 17 20 21 20 18 17 16 15 10 6 6 7 9 8 5 4 3 6 13 16 15 15 12 10 8 7
55 51 48 49 50 50 45 37 30 30 29 26 26 28 26 23 22 24 25 24 19 16 17 18 17 14 11 8 7 6 5 5 5 4 6 9 12 13 14 12 9 7 5
63 59 55 54 54 53 47 39 33 31 30 28 31 35 34 32 32 31 28 26 21 18 20 21 20 16 13 10 8 6 4 3 4 5 6 7 8 10 13 13 10 7 5
65 61 54 48 47 49 46 40 35 33 32 33 36 40 41 41 40 36 30 26 24 22 24 25 23 17 13 10 8 6 3 2 2 3 5 5 4 5 9 12 11 7 6
62 57 46 39 40 45 46 42 36 34 35 38 41 43 44 44 42 37 31 27 26 24 24 24 22 17 12 8 5 3 2 2 1 1 3 4 3 4 6 8 9 7 6
57 51 40 34 37 42 44 42 38 36 37 38 40 42 43 41 40 38 34 29 26 25 23 21 19 16 11 6 2 1 2 2 2 2 3 4 5 6 6 6 6 5 5
53 47 38 34 36 40 43 42 40 38 37 35 35 37 39 40 39 38 34 30 28 27 24 20 17 14 10 5 2 1 2 3 4 5 4 5 7 8 7 6 6 5 5
49 45 40 37 38 40 42 41 40 39 37 33 31 32 35 38 39 37 33 31 30 29 25 19 15 13 8 4 2 1 2 3 5 6 5 5 6 6 5 6 7 6 5
48 45 43 43 41 40 40 39 39 38 36 33 31 32 33 35 35 34 33 30 28 27 23 18 16 12 7 2 1 0 1 1 2 3 4 4 5 4 4 5 7 7 5
47 46 45 45 42 39 37 35 35 35 35 34 34 33 33 32 30 29 28 26 23 21 19 18 18 14 7 2 0 0 0 0 1 1 2 3 4 4 3 4 6 6 5
43 43 44 44 42 38 36 33 32 33 34 33 34 34 32 29 26 24 22 20 19 17 17 17 17 15 9 2 0 0 0 0 1 2 2 3 4 4 3 4 6 6 5
37 38 40 42 41 39 36 34 32 32 32 31 30 31 29 26 23 20 19 18 17 17 17 16 15 14 9 3 1 1 0 0 1 2 4 4 3 3 3 4 6 6 4
36 37 39 40 40 39 37 34 33 32 31 29 28 28 26 23 21 19 19 18 17 17 16 15 14 12 8 4 2 2 1 0 0 2 3 4 3 2 2 4 6 6 4

GEFSSE_con_prob3kmehi_210.txt.gz
EHI
9 20 35 42 41 38 36 31 25 21 20 20 21 23 24 24 25 24 21 18 16 12 6 1 0 0 1 2 1 1 1 2 2 2 3 4 5 7 10 9 8 9 12
16 25 39 46 45 43 39 33 26 20 17 15 16 19 21 23 23 23 20 17 15 10 4 0 0 0 1 2 2 1 2 3 3 2 1 2 4 7 10 9 8 11 13
26 32 43 51 50 47 42 35 28 20 15 13 12 15 17 17 19 18 16 13 11 7 2 0 0 0 0 1 2 2 2 3 3 2 0 0 2 5 8 9 9 11 12
31 32 41 52 53 47 42 37 31 23 18 15 12 13 13 12 12 13 11 10 8 6 3 1 0 0 0 0 1 1 1 1 1 1 0 0 0 3 7 9 10 9 8
30 30 40 53 55 48 43 38 33 26 21 17 14 13 12 10 9 9 9 8 7 6 5 2 0 0 0 0 0 0 0 0 0 0 0 0 1 3 7 9 8 7 6
27 29 42 56 58 51 43 38 34 29 24 20 17 14 12 9 8 9 9 8 7 7 6 3 1 0 1 1 0 0 0 1 1 0 0 0 1 3 5 6 6 6 6
30 32 44 56 57 49 40 37 35 32 27 23 18 14 11 9 9 10 10 8 6 6 5 4 2 2 2 2 1 0 1 2 2 1 0 0 2 4 5 5 6 6 6
38 39 43 49 48 41 37 36 36 34 31 25 20 16 13 10 10 10 9 6 5 5 4 3 3 3 3 2 1 0 1 2 2 1 0 1 3 5 6 7 8 8 8
42 43 41 37 35 33 31 33 34 34 31 26 20 17 14 10 9 9 8 5 3 4 4 2 2 2 2 2 1 0 1 1 1 0 0 0 3 6 8 9 9 9 8
39 39 35 28 26 27 27 27 28 29 27 23 18 14 10 8 7 7 7 5 3 3 4 2 1 1 1 1 1 1 1 0 0 0 0 0 2 7 12 11 9 8 7
35 32 29 25 24 25 26 24 22 22 21 19 15 11 9 6 5 5 5 3 2 3 4 4 3 2 2 1 2 2 1 0 0 0 0 0 1 6 12 11 8 7 5
32 29 26 25 25 26 26 24 21 18 17 16 14 11 9 8 5 4 3 2 2 4 6 6 4 3 2 1 2 1 0 0 0 0 0 0 2 4 7 10 9 6 5
33 29 26 27 28 27 26 24 20 17 15 14 12 10 9 9 7 4 4 3 3 5 6 5 3 3 2 1 0 0 0 0 0 0 0 1 2 3 4 7 9 8 7
36 32 28 27 28 27 23 20 17 15 13 12 11 9 8 8 7 5 4 4 4 5 5 3 2 2 1 0 0 0 0 1 1 1 0 0 1 2 2 4 8 9 8
37 33 29 27 26 23 20 17 15 13 10 9 9 8 7 7 6 4 3 3 4 5 4 2 1 0 0 0 0 0 0 1 1 1 0 0 0 0 1 2 4 5 6
36 32 27 24 21 19 17 16 15 12 9 8 8 8 7 6 6 5 4 3 4 4 3 1 0 0 0 0 0 0 0 0 0 0 0 0 0 0 0 0 1 2 3
35 30 25 23 20 18 17 16 13 10 8 6 6 7 7 7 6 6 5 4 3 2 1 1 0 0 0 0 0 0 0 0 0 0 0 0 0 0 0 0 0 2 4
34 30 27 26 24 22 20 16 12 10 8 5 4 6 7 6 7 8 8 6 4 3 2 2 2 1 0 0 0 0 0 0 0 0 0 0 0 0 0 0 1 3 4
33 30 29 30 30 27 22 18 16 14 11 7 5 5 5 6 8 12 12 9 6 5 5 5 3 1 0 0 0 0 0 0 0 0 0 0 0 0 0 0 1 2 3
31 29 28 30 32 30 25 23 22 19 16 13 11 10 9 10 13 16 15 11 8 8 7 6 4 2 1 0 0 0 0 0 0 0 0 0 0 0 0 0 1 1 1
28 27 26 28 31 30 27 26 25 22 19 17 15 15 15 16 18 18 16 12 10 9 8 6 4 2 1 0 0 0 0 0 0 0 0 0 0 0 0 0 0 0 0
26 26 25 26 29 29 26 25 24 22 20 17 15 15 15 18 19 18 15 12 9 8 7 5 3 2 1 0 0 0 0 0 0 0 0 0 0 0 0 0 0 0 0
25 25 24 24 26 27 25 23 22 22 20 18 15 13 11 13 16 16 14 11 8 7 6 5 4 3 2 1 0 0 0 0 0 0 0 0 0 0 0 0 0 0 0
24 23 22 22 24 26 24 22 20 19 18 18 16 12 9 9 12 13 11 9 7 6 6 5 5 5 3 1 0 0 0 0 0 0 0 0 0 0 0 0 0 0 0
24 22 21 22 24 24 23 20 18 16 15 16 15 12 9 9 10 10 9 6 5 6 6 6 6 5 3 1 0 0 0 0 0 0 0 0 0 0 0 0 0 0 0
23 20 20 21 22 22 21 19 17 15 13 14 13 12 11 11 10 9 7 5 4 6 6 5 5 5 3 2 1 0 0 0 0 0 0 0 0 0 0 0 0 0 0

GEFSSE_con_prob3kmehi_216.txt.gz
EHI
5 14 27 35 40 46 50 50 49 48 50 53 53 48 44 41 34 26 20 16 11 8 6 6 4 2 2 2 1 0 0 0 1 0 0 0 0 0 0 1 1 1 0
10 19 31 37 41 47 52 53 53 52 53 54 53 49 44 40 35 29 22 16 12 9 7 6 4 2 1 1 0 0 0 1 1 0 0 0 0 0 1 2 2 2 1
19 25 34 39 41 47 54 57 58 56 54 53 52 48 43 40 36 31 24 17 13 11 9 6 4 2 1 1 1 1 1 1 1 1 0 0 0 0 1 2 2 3 3
23 27 35 41 42 45 52 57 58 56 52 50 49 46 42 40 36 31 24 16 13 12 10 6 3 2 2 2 2 2 3 2 2 1 1 0 0 0 1 1 1 2 3
24 28 35 43 46 46 49 52 53 51 48 46 45 43 40 37 34 31 25 17 13 10 8 5 2 1 1 1 1 2 3 3 1 1 1 1 0 0 0 0 0 1 1
24 27 36 46 49 47 45 44 45 44 42 40 40 40 38 34 33 31 26 20 14 8 5 4 3 2 1 0 0 0 1 1 1 0 0 0 0 0 0 0 0 0 0
24 27 38 48 50 46 41 37 36 36 34 34 35 36 35 32 29 26 23 19 13 7 3 4 4 3 1 0 0 0 0 0 1 0 0 0 0 0 1 2 2 1 0
25 28 37 46 49 46 40 33 31 31 29 30 32 32 30 26 21 18 15 13 10 6 4 3 4 3 1 1 0 0 0 0 0 0 0 0 1 1 2 3 4 2 1
28 31 37 40 43 42 37 31 29 28 27 28 29 27 24 18 13 11 9 8 7 4 3 3 3 3 3 2 1 0 0 0 0 0 0 0 1 1 1 3 5 5 4
29 34 38 38 36 36 33 30 28 25 24 24 24 21 17 12 9 7 6 6 5 3 2 1 2 2 2 2 1 1 1 0 0 0 0 0 0 0 1 2 5 6 6
27 31 36 36 34 34 31 29 27 24 22 20 17 14 12 9 6 5 4 4 4 3 2 1 1 1 1 1 1 2 1 0 0 0 0 0 0 0 1 2 4 5 5
23 27 31 33 34 33 31 28 26 24 21 18 13 10 8 6 4 3 3 3 4 5 3 2 1 1 0 0 1 2 1 0 0 0 0 0 0 0 1 2 2 3 3
21 22 26 29 30 29 27 26 26 25 21 17 12 9 7 4 1 1 2 3 4 5 3 2 1 0 0 1 1 1 0 0 0 0 0 0 0 1 1 1 1 2 2
22 21 22 24 24 22 21 23 24 25 23 18 12 10 8 4 1 0 1 2 3 3 2 1 1 1 1 1 0 0 0 0 0 0 0 0 0 1 1 1 1 1 1
25 23 22 22 20 17 16 17 20 21 21 17 12 9 8 4 1 0 0 1 1 1 1 0 1 2 2 1 0 0 0 0 0 0 0 0 0 0 0 0 0 0 1
25 25 23 21 18 15 13 13 14 16 17 14 10 8 7 5 2 0 1 2 2 1 1 1 1 1 1 0 0 0 0 0 0 0 0 0 0 0 0 0 0 0 1
22 23 23 20 16 14 13 11 11 13 13 11 8 5 6 6 3 1 1 2 3 3 2 2 2 1 1 0 0 0 0 0 0 0 0 0 0 0 0 0 0 0 1
18 20 21 19 17 15 12 9 8 8 9 7 5 3 4 4 3 1 0 1 2 3 3 3 3 3 2 1 0 0 0 0 0 0 0 0 0 0 0 0 0 0 0
14 16 19 19 16 14 11 8 5 3 4 3 2 2 2 1 1 1 1 0 1 1 2 3 3 3 3 2 1 0 0 0 0 0 0 0 0 0 0 0 0 0 1
8 12 16 16 13 11 9 7 3 2 1 1 1 1 1 0 1 1 1 1 0 1 2 3 4 3 3 3 2 0 0 0 0 0 0 0 0 0 0 0 0 0 1
5 8 12 13 11 9 9 9 7 5 4 3 3 3 3 3 2 2 2 2 2 3 4 4 5 4 3 2 1 0 0 0 0 0 0 0 0 0 0 0 0 0 1
7 8 10 11 11 10 12 13 12 9 7 6 7 7 6 6 5 3 3 5 6 6 5 6 6 5 3 1 0 0 0 0 0 0 0 0 0 0 0 0 0 0 0
9 10 10 10 10 11 13 14 13 10 8 8 8 7 6 5 4 4 5 7 8 7 6 5 5 3 1 0 0 0 0 0 0 0 0 0 0 0 0 0 0 0 0
8 10 11 10 9 10 11 12 12 9 8 7 7 6 4 3 2 4 7 8 8 7 5 2 2 2 1 0 0 0 0 0 0 0 0 0 0 0 0 0 0 0 0
7 9 10 10 9 8 8 8 9 9 7 6 5 5 4 3 3 4 6 7 7 6 4 1 0 0 0 0 0 0 0 0 0 0 0 0 0 0 0 0 0 0 0
9 10 10 10 9 7 6 6 7 9 7 5 4 5 5 4 3 4 6 6 6 6 4 2 1 0 0 0 0 0 0 0 0 0 0 0 0 0 0 0 0 0 0

GEFSSE_con_prob3kmehi_222.txt.gz
EHI
17 32 46 45 40 34 30 32 39 43 43 41 40 38 35 32 27 25 22 21 20 16 9 4 4 5 3 1 2 2 2 2 2 1 0 0 0 0 0 0 1 3 3
19 32 44 44 40 36 33 35 40 42 41 40 41 40 38 33 29 26 24 22 20 16 9 5 4 5 4 3 3 3 3 3 2 0 0 0 0 0 0 0 2 4 4
22 33 42 42 40 38 38 39 42 42 39 38 41 42 39 33 28 25 23 20 18 14 11 7 4 4 5 4 4 4 4 4 3 1 0 0 1 2 1 0 1 3 3
27 35 40 40 40 40 41 41 42 42 40 38 40 40 36 31 26 23 19 16 14 13 11 8 4 3 3 3 3 3 3 3 3 2 1 1 2 4 3 1 2 2 2
28 34 40 41 41 41 41 41 41 41 41 41 41 40 36 30 26 21 17 14 14 14 11 7 4 2 3 3 3 3 3 2 2 2 2 2 4 5 4 3 4 4 3
25 31 39 42 41 40 40 40 40 39 41 43 43 41 36 29 24 19 15 13 13 14 11 6 4 5 5 5 5 4 3 1 1 2 3 3 4 5 4 3 4 5 5
25 29 38 42 40 39 40 40 39 38 40 43 43 40 34 27 22 18 14 11 11 11 10 7 6 7 7 6 4 3 2 1 0 1 2 3 5 7 4 1 2 3 5
24 27 34 37 35 35 38 39 40 40 41 43 42 38 32 27 23 18 14 10 8 7 7 7 7 6 6 4 2 1 0 0 0 0 1 3 6 6 3 1 1 2 3
22 25 29 31 30 30 33 36 38 40 41 43 40 34 30 27 22 15 11 8 6 4 4 5 5 5 4 3 2 1 0 0 0 0 1 5 7 5 1 0 0 0 1
24 24 25 26 25 24 26 30 32 33 36 37 33 26 23 22 17 11 8 7 5 3 2 3 4 4 4 3 2 1 0 0 0 0 1 6 9 5 1 0 0 0 0
27 24 23 23 21 19 20 25 26 27 29 29 25 20 17 16 13 8 6 6 5 3 3 3 4 4 3 2 2 2 1 0 0 0 2 7 8 5 1 0 0 0 0
30 26 22 22 21 19 20 23 24 25 25 22 20 18 16 15 12 7 5 6 6 4 3 3 3 2 1 1 2 2 1 0 0 0 4 8 7 4 2 1 1 0 0
29 27 24 23 24 24 25 25 25 25 24 21 18 18 18 18 14 9 8 7 6 5 4 4 3 2 0 0 1 1 0 0 0 0 5 9 7 3 2 2 2 1 0
26 25 24 24 26 28 29 28 27 26 24 21 19 19 20 19 16 13 11 9 7 6 5 5 4 2 1 1 0 0 0 0 0 2 5 7 5 1 1 1 2 2 1
24 24 24 25 27 29 29 27 25 25 23 20 19 18 18 17 15 13 12 10 8 6 5 5 5 3 3 3 2 1 1 1 2 3 5 4 2 0 0 1 2 1 1
23 23 24 25 27 29 27 24 23 23 22 19 17 15 12 12 12 11 10 9 8 7 7 6 6 6 6 6 5 3 3 4 5 5 4 2 1 0 0 0 1 1 1
24 26 25 24 25 26 26 23 22 21 20 17 14 10 8 8 10 10 9 7 7 7 8 8 8 8 9 8 7 6 6 7 6 5 4 3 2 1 0 0 0 0 0
26 29 28 24 22 24 25 25 22 19 16 14 11 8 7 8 10 11 8 6 6 7 7 7 8 9 10 10 9 8 8 8 7 5 4 4 3 1 0 0 0 0 0
25 29 29 24 22 22 24 24 22 18 14 13 12 10 9 9 10 10 8 6 7 8 7 7 9 10 10 10 8 7 8 9 8 6 5 4 3 1 0 0 0 0 0
25 27 27 24 24 24 23 22 21 17 13 12 12 11 10 9 10 11 10 9 10 11 11 10 11 12 11 9 6 5 6 8 7 7 6 4 2 1 0 0 0 0 0
27 28 27 24 24 24 22 22 20 16 12 9 8 8 9 10 12 14 13 12 13 14 14 13 14 14 12 10 8 5 4 5 6 6 6 4 2 1 0 0 1 1 0
28 27 25 23 22 20 20 20 19 15 11 7 4 6 10 13 14 14 14 14 13 13 15 16 16 15 13 12 11 8 4 4 4 4 5 4 3 2 1 1 2 2 1
27 26 23 22 21 19 18 16 16 16 12 8 6 7 11 14 14 13 12 12 10 11 14 16 16 15 14 13 12 10 7 4 4 5 4 3 3 3 2 2 3 3 3
27 26 24 23 21 19 16 14 14 15 13 11 9 10 11 11 11 11 10 8 8 9 11 13 14 14 13 13 12 11 9 7 6 5 3 2 2 3 2 2 3 3 3
24 25 24 22 20 17 14 12 11 12 12 13 12 12 11 10 9 8 7 6 7 9 9 10 11 12 12 11 11 10 9 8 7 5 2 1 2 2 2 2 2 3 3
21 22 20 19 17 15 12 11 9 9 10 13 14 12 12 11 8 6 5 6 8 9 9 9 9 10 10 11 10 9 8 8 6 4 1 1 2 1 1 2 2 2 3

GEFSSE_con_prob3kmehi_228.txt.gz
EHI
39 43 47 45 39 34 31 24 17 11 9 7 5 4 5 6 7 9 11 11 9 8 7 5 4 3 3 3 3 3 2 1 2 5 7 7 5 6 8 8 8 11 16
38 42 46 44 38 34 30 25 18 13 11 10 9 8 8 8 8 9 10 9 7 5 4 4 3 3 3 3 3 3 3 2 2 4 4 3 4 7 9 10 10 13 15
35 37 42 42 37 33 31 28 23 18 14 13 13 12 11 9 8 8 8 6 4 2 3 3 3 3 3 3 3 3 3 3 2 2 1 1 5 12 15 12 11 10 10
35 36 39 40 37 34 33 31 28 22 17 14 13 11 10 10 10 9 8 6 4 3 4 4 4 3 3 3 3 3 3 3 1 1 1 2 9 22 25 17 10 8 7
42 41 41 41 39 37 35 33 29 24 18 13 11 10 10 12 12 11 9 6 5 5 5 5 4 4 4 4 3 3 3 2 1 1 2 2 14 33 33 20 10 7 6
46 45 44 44 43 39 37 33 29 26 20 14 12 13 14 15 15 13 9 7 6 5 5 5 5 6 5 4 3 2 1 1 0 0 1 4 20 40 36 18 8 5 4
45 46 47 47 45 41 37 33 30 28 25 21 20 21 22 21 18 15 11 9 7 5 5 6 6 7 5 3 2 1 0 0 0 0 0 6 24 39 33 14 6 4 4
44 46 47 46 44 41 36 33 31 30 29 27 26 26 26 24 22 18 15 14 10 8 6 6 6 5 4 1 0 0 0 0 0 0 1 9 25 36 30 14 6 5 4
39 42 42 41 39 37 35 33 32 29 27 26 25 24 24 22 21 19 17 15 12 7 5 4 4 3 2 1 0 0 0 0 0 0 1 11 26 34 28 16 8 5 4
34 36 37 35 33 32 31 32 31 27 25 23 22 22 20 18 16 15 14 13 10 6 3 2 2 2 2 1 1 1 1 0 0 0 2 12 27 31 25 16 10 6 3
32 33 33 33 30 26 25 29 30 26 24 24 22 21 20 18 15 12 11 11 10 7 4 2 3 4 2 1 2 4 3 1 0 0 5 16 27 28 22 16 13 9 6
33 33 33 33 29 22 24 30 30 25 24 25 24 23 21 19 17 14 13 13 11 9 6 5 6 5 2 0 2 4 3 2 2 2 9 21 27 25 21 18 17 13 10
34 32 33 34 31 27 29 32 29 25 25 26 27 26 23 21 19 18 17 16 14 11 8 6 6 4 1 0 1 2 3 3 3 3 10 21 24 21 19 18 17 14 11
31 31 34 38 38 38 39 36 30 27 27 27 30 31 28 25 21 20 20 18 15 11 9 7 5 3 2 1 1 1 2 2 2 3 9 17 20 18 17 16 16 14 12
31 32 37 45 49 49 45 40 33 30 27 28 34 36 32 28 24 22 23 20 14 12 11 11 8 5 3 2 1 1 1 1 1 3 8 14 18 18 17 16 16 16 15
33 34 40 48 55 55 48 41 36 32 29 30 37 40 35 30 27 25 24 20 16 14 14 15 12 9 6 4 3 4 4 3 3 4 8 12 16 17 17 17 17 18 17
35 36 39 46 53 55 49 43 38 33 30 34 39 41 36 29 25 24 23 21 19 17 16 17 15 13 11 8 8 8 7 6 6 7 9 11 12 14 17 19 19 18 17
40 41 43 47 52 54 52 48 41 34 32 34 37 38 34 26 21 20 21 20 19 18 17 15 14 14 13 11 10 10 8 7 7 9 11 10 10 13 16 19 20 18 15
45 47 48 51 54 55 54 51 45 39 35 33 34 33 28 22 18 19 20 19 19 19 16 13 13 14 13 11 10 9 7 6 7 7 8 9 10 12 14 16 17 15 13
44 46 48 50 54 55 55 52 47 42 35 31 30 29 23 18 16 16 17 18 18 17 15 14 15 16 14 11 9 8 7 8 8 6 5 6 7 8 9 11 13 12 10
40 42 44 46 49 52 53 51 48 42 35 29 25 23 21 18 17 15 15 17 17 16 15 15 17 17 15 12 10 8 7 8 8 6 5 5 5 4 4 6 9 9 8
37 39 40 41 45 47 48 47 45 39 32 26 21 21 21 19 18 15 15 15 15 14 14 15 16 16 15 14 12 10 8 7 6 4 5 6 4 3 2 4 6 7 8
35 37 38 39 40 41 44 43 38 33 28 22 20 22 22 20 18 16 15 14 14 13 13 15 16 16 16 15 14 11 9 7 5 3 3 5 5 4 3 2 4 6 8
34 35 36 36 35 36 40 39 32 25 22 20 20 22 23 20 17 15 15 15 14 13 14 16 17 17 17 16 15 11 9 7 5 3 2 3 4 4 4 3 4 6 7
31 31 32 33 33 33 35 33 25 19 17 19 20 22 22 20 16 13 14 16 17 17 17 18 18 18 17 16 14 12 9 7 5 3 2 2 2 2 3 4 5 6 7
27 28 29 32 33 33 32 28 21 17 16 18 19 21 22 19 15 12 14 17 19 20 21 20 19 18 17 16 14 11 9 6 4 2 2 2 1 1 3 4 5 6 8

GEFSSE_con_prob3kmehi_234.txt.gz
EHI
12 20 36 49 51 48 44 40 36 35 37 38 39 39 39 36 31 27 25 21 16 13 13 11 8 7 5 2 1 2 2 2 1 1 3 5 5 5 5 9 11 12 14
15 23 38 50 53 51 47 41 37 35 36 37 37 36 35 33 30 26 24 21 16 13 12 10 7 6 5 2 1 1 2 2 1 1 3 3 3 3 5 8 11 12 14
19 26 37 49 54 54 50 44 39 35 35 35 34 32 30 28 26 24 23 22 17 12 9 7 5 5 4 2 1 1 1 1 1 1 1 1 1 2 4 8 10 11 11
22 25 35 47 55 54 51 47 43 38 35 33 31 28 25 22 21 21 22 21 17 10 6 4 3 3 3 2 1 0 0 0 1 2 1 0 0 1 4 10 12 9 7
22 24 34 49 56 53 50 48 46 41 35 30 27 24 20 17 16 17 17 16 13 8 5 3 3 3 2 1 0 0 0 1 1 1 1 0 1 2 7 13 14 9 6
21 23 34 51 57 53 48 47 47 43 36 30 25 20 17 16 14 12 11 10 8 7 5 4 3 2 2 1 0 0 0 1 1 0 0 0 2 6 12 16 15 10 6
21 23 34 49 53 47 42 41 43 41 36 31 25 21 19 17 15 11 8 7 6 6 5 3 3 3 2 1 0 0 0 0 0 0 0 0 2 8 14 15 14 11 7
23 26 35 42 42 38 36 36 36 36 34 31 26 22 19 18 15 13 10 7 6 6 4 2 2 3 2 1 0 0 0 0 0 0 0 0 1 7 13 16 15 13 10
26 30 34 36 34 32 32 33 32 31 32 30 25 19 17 15 13 13 11 8 6 4 2 1 1 2 2 1 0 0 0 0 0 0 0 0 1 6 14 19 19 15 13
24 28 31 30 28 28 29 30 31 30 30 30 24 18 14 11 8 9 9 8 4 1 1 1 2 3 3 1 0 0 0 0 0 0 0 0 2 7 14 19 19 17 16
20 22 24 23 22 24 25 25 28 29 30 29 25 19 15 9 5 5 7 6 3 0 0 1 3 4 3 1 0 0 0 0 0 0 0 1 3 7 13 17 17 17 16
16 16 17 17 17 19 21 22 25 28 28 27 23 18 14 10 6 6 7 7 4 1 0 1 4 6 4 1 0 0 0 0 0 0 0 1 3 7 13 17 17 15 14
13 13 13 14 14 14 17 21 24 26 24 23 20 16 13 10 8 7 7 7 4 1 0 2 4 6 4 1 0 0 0 0 0 0 0 1 3 7 13 17 17 15 14
13 12 11 11 10 11 13 16 20 21 20 19 18 15 12 10 8 6 6 4 2 0 1 3 5 6 4 1 0 0 0 0 0 0 0 1 3 7 11 15 16 15 15
15 13 11 10 9 9 9 11 14 18 19 17 16 14 11 10 7 4 3 1 0 0 2 4 5 5 4 2 0 0 0 0 0 0 0 1 4 7 10 13 14 13 13
16 14 13 12 11 10 8 9 13 17 20 18 15 13 11 9 6 3 1 0 0 0 1 2 3 3 3 2 1 0 0 0 0 0 0 1 3 5 8 11 12 11 10
15 15 15 15 16 14 12 13 16 19 21 18 15 13 11 8 5 3 1 1 1 1 1 1 1 1 2 1 1 0 0 0 0 0 0 0 1 2 6 9 10 9 7
18 17 15 16 17 17 17 17 19 20 19 16 14 13 11 8 5 4 3 3 3 2 2 2 2 1 1 0 0 0 0 0 0 0 0 0 0 0 2 5 8 8 7
19 17 14 14 15 17 19 19 19 18 16 13 13 13 10 7 6 5 5 6 6 4 4 3 3 2 1 0 0 0 0 0 0 0 0 0 0 0 0 2 5 8 10
17 16 14 14 15 17 21 21 18 15 12 11 10 9 8 6 6 6 6 7 6 6 5 4 3 2 1 0 0 0 0 0 0 0 0 0 0 0 0 0 2 6 8
16 17 17 17 17 19 21 22 19 15 12 10 7 6 5 5 4 4 5 5 6 6 5 4 3 2 1 0 0 0 0 0 0 0 0 0 0 0 0 0 0 2 3
17 19 20 20 20 20 20 21 20 17 13 9 6 5 4 3 2 3 4 5 5 5 5 4 3 1 0 0 0 0 0 0 0 0 0 0 0 0 0 0 0 0 0
19 20 20 20 20 19 17 17 18 16 11 7 4 3 2 1 2 3 4 5 5 5 4 3 2 1 0 0 0 0 0 0 0 0 0 0 0 0 0 0 0 0 0
17 18 19 19 19 17 14 12 12 11 8 4 3 2 1 0 1 3 5 6 6 6 5 5 2 1 0 0 0 0 0 0 0 0 0 0 0 0 0 0 0 0 0
12 15 17 17 16 14 12 9 8 8 6 4 2 1 0 0 0 2 4 6 7 7 7 7 4 1 0 0 0 1 1 1 0 0 0 0 0 0 0 0 0 0 0
12 13 16 16 13 12 10 7 6 7 7 4 2 1 0 0 0 1 2 5 8 9 8 8 6 2 0 0 1 2 2 2 1 0 0 0 0 0 0 0 0 0 0

GEFSSE_con_prob3kmehi_240.txt.gz
EHI
9 18 29 32 35 45 53 57 56 56 57 57 56 55 54 51 47 38 30 24 20 16 11 7 5 4 4 7 6 2 1 1 1 1 2 3 2 1 1 2 2 2 3
14 22 30 32 36 43 50 54 55 55 56 56 55 53 52 50 45 38 30 25 20 16 12 7 6 5 4 6 6 3 2 2 3 3 3 3 3 3 2 2 2 2 3
20 25 29 32 37 42 45 47 51 53 54 54 51 48 46 44 40 35 29 25 22 18 14 9 7 6 6 5 5 4 3 3 4 3 2 2 2 3 3 2 1 2 2
28 27 29 33 38 42 42 43 46 50 51 50 47 44 41 38 36 32 28 24 21 19 17 12 9 8 8 8 6 4 3 3 3 2 1 0 1 2 3 2 1 1 1
33 31 31 35 39 41 42 42 44 47 47 46 44 42 39 37 35 32 27 23 19 18 18 16 13 11 10 10 9 6 4 3 3 1 0 0 1 2 3 3 2 1 0
33 33 34 37 39 41 42 41 42 43 44 44 44 42 39 37 34 30 24 20 18 18 18 17 15 13 12 11 10 7 4 4 3 1 0 0 0 2 5 6 4 2 1
34 34 37 40 42 43 42 40 39 39 40 42 42 41 38 35 31 25 21 19 19 19 18 17 14 13 11 9 7 6 4 4 3 1 0 0 2 5 7 8 6 4 4
37 37 37 39 41 42 41 39 37 37 38 40 40 39 36 31 26 21 18 18 18 18 17 15 12 11 10 8 5 4 4 3 1 0 0 0 3 6 6 6 6 6 5
36 34 33 33 33 33 33 35 36 37 37 37 36 34 30 25 20 17 16 15 15 15 14 13 12 11 10 8 5 2 2 2 1 0 0 1 2 3 3 3 4 5 5
29 27 26 26 25 24 25 28 33 35 33 30 26 24 21 19 16 15 14 12 11 10 10 12 11 10 9 7 4 2 1 1 0 0 0 1 2 2 2 2 3 5 7
19 19 20 20 19 18 19 22 27 30 27 21 17 16 15 14 13 12 11 9 8 7 8 9 8 7 6 5 3 1 0 0 0 0 0 1 2 2 2 2 2 5 8
12 11 13 13 12 13 15 18 21 24 22 19 17 16 16 13 10 10 9 6 5 6 6 6 5 4 4 3 1 1 0 0 0 0 0 0 1 1 1 2 2 5 8
8 8 8 8 8 9 13 15 16 17 19 20 20 18 17 14 10 8 7 5 3 4 5 6 5 4 2 1 0 0 0 0 0 0 0 0 0 0 0 1 4 7 9
8 8 7 6 7 8 11 12 11 12 16 19 20 17 16 13 9 6 4 3 2 2 4 6 4 2 2 1 0 0 0 0 0 0 0 0 0 0 0 1 4 7 8
6 6 5 5 7 8 8 8 7 8 12 16 17 16 15 12 8 5 3 2 1 1 2 3 2 1 1 0 0 0 0 0 0 0 0 0 0 0 0 1 3 4 5
5 4 4 4 6 6 5 4 4 5 8 12 14 15 15 13 8 4 3 1 0 0 0 0 0 0 0 0 0 0 0 0 0 0 0 0 0 0 0 1 3 3 3
6 5 4 4 4 4 4 3 3 4 6 9 13 15 16 14 9 4 2 1 0 0 0 0 0 0 0 0 0 0 1 0 0 0 0 0 0 0 0 2 3 3 3
9 7 6 5 4 3 3 3 3 3 4 8 12 15 16 14 8 3 1 1 1 1 0 0 0 0 0 0 0 0 0 0 0 0 0 0 0 0 0 1 3 3 2
10 9 8 7 5 3 3 3 3 3 3 6 11 15 15 11 6 2 0 1 1 1 0 0 0 0 0 0 0 0 0 0 0 0 0 0 0 0 0 1 2 3 1
9 9 9 7 5 3 3 4 4 4 3 4 8 11 10 8 5 3 1 0 0 0 0 0 0 0 0 0 0 0 0 0 0 0 0 0 0 0 0 0 1 1 1
8 9 8 7 5 4 4 4 4 4 4 4 4 5 4 3 3 3 1 0 0 0 0 0 0 1 1 0 0 0 0 0 0 0 0 0 0 0 0 0 0 0 0
8 9 9 8 7 6 4 4 4 4 5 4 3 3 2 1 1 1 1 1 1 1 1 0 0 1 2 1 0 0 0 0 0 0 0 0 0 0 0 0 0 0 0
7 8 8 7 7 6 4 3 3 4 5 4 3 3 3 2 1 0 0 0 1 3 2 1 1 2 2 1 0 0 0 0 0 0 0 0 0 0 0 0 0 0 0
4 5 5 5 5 6 6 5 4 5 5 3 2 2 2 2 1 0 0 0 1 2 3 2 2 2 2 1 0 0 0 0 0 0 0 0 0 0 0 0 0 0 0
3 3 3 3 3 5 6 5 5 4 3 2 1 1 1 1 1 0 0 0 0 2 3 3 1 1 2 2 1 0 0 0 0 0 0 0 0 0 0 0 0 0 0
3 2 2 2 2 3 4 5 4 4 2 1 0 0 0 0 0 0 0 0 1 2 3 2 1 0 1 2 1 0 0 0 0 0 0 0 0 0 0 0 0 0 0

GEFSSE_con_prob3kmehi_246.txt.gz
EHI
16 31 39 34 29 29 29 31 33 34 37 41 43 43 41 37 35 33 30 26 22 17 13 13 12 11 10 7 4 2 3 4 4 3 2 1 0 0 0 0 0 1 3
20 33 41 36 30 28 29 32 35 36 38 42 45 47 46 42 37 35 32 27 22 17 13 13 12 12 11 7 4 3 4 4 3 2 1 0 0 0 0 0 0 1 2
26 34 40 38 32 28 29 33 37 39 40 42 46 49 49 44 39 37 33 29 23 17 14 13 12 11 10 8 5 4 5 5 2 1 0 0 0 0 0 0 0 1 1
30 35 40 40 34 29 30 34 37 40 40 41 43 45 43 39 36 35 32 29 24 17 14 13 11 9 8 7 5 4 6 6 2 0 0 0 1 3 2 0 0 0 0
29 34 40 41 35 30 31 34 37 39 39 37 36 35 34 31 31 31 30 27 22 16 12 12 11 9 8 7 5 4 4 4 2 0 0 0 3 6 4 1 0 0 0
23 28 36 38 33 29 29 32 35 36 35 32 29 29 28 27 27 28 27 24 19 14 10 9 10 11 10 9 6 4 3 3 1 0 0 0 4 8 7 3 1 1 1
18 22 30 34 31 27 28 29 30 31 30 29 28 27 26 25 25 24 23 20 16 12 9 8 10 12 12 11 10 7 5 3 1 0 0 0 4 9 8 4 2 2 2
17 21 27 29 28 27 28 29 28 27 27 28 29 29 27 25 23 20 18 16 13 10 9 8 10 12 12 12 12 11 8 5 2 1 0 1 5 8 7 4 3 3 3
16 19 23 25 25 25 27 29 28 27 28 28 28 28 27 24 19 15 14 12 10 9 8 8 9 9 9 10 12 12 10 7 3 1 0 2 5 7 5 3 3 3 4
16 17 20 22 22 21 23 25 25 25 26 27 26 25 22 16 12 10 10 10 9 8 8 7 6 5 5 6 8 10 9 7 4 1 1 3 6 6 4 4 4 4 4
18 18 19 20 19 17 18 19 19 18 21 22 21 19 14 8 6 6 7 9 9 7 6 5 4 4 4 4 5 7 8 7 4 2 2 4 5 4 3 4 5 5 5
19 18 18 19 19 17 14 13 13 14 17 18 16 14 11 8 7 7 9 11 9 5 3 2 2 3 4 3 3 5 7 5 3 3 4 5 4 2 2 5 7 7 7
15 15 17 17 17 16 14 11 12 15 18 19 18 16 15 14 11 11 13 13 9 4 2 2 3 4 4 3 2 2 4 3 2 3 4 5 3 1 2 5 8 9 10
10 12 14 14 13 15 14 12 13 17 19 20 21 21 19 18 15 13 14 13 9 6 4 4 5 6 5 3 1 1 1 1 1 1 3 3 2 1 2 4 5 6 8
6 9 11 12 12 13 13 12 12 15 17 17 19 21 21 19 17 15 16 15 10 6 6 6 7 7 7 4 1 0 0 1 1 1 1 1 1 1 1 1 1 2 3
4 6 9 11 11 12 12 11 10 12 14 14 16 19 20 19 18 18 19 17 12 7 6 6 6 7 6 3 1 0 0 1 1 1 1 0 0 0 0 0 0 0 0
6 7 11 12 11 12 13 11 10 10 11 12 14 16 17 17 17 19 20 17 13 10 9 8 7 7 5 3 2 1 1 1 2 2 1 0 0 0 0 0 0 0 0
9 11 13 14 13 14 15 14 13 11 10 11 13 15 15 15 16 17 17 15 12 11 10 9 8 7 5 4 4 5 4 2 2 2 1 0 0 0 0 1 1 0 0
9 10 12 15 16 15 15 15 14 13 11 10 12 13 13 14 14 14 14 12 10 10 10 9 9 7 6 5 5 7 7 5 4 2 1 0 0 0 0 1 1 0 0
7 8 11 14 17 17 15 14 14 12 11 10 11 11 11 13 14 14 14 12 10 9 9 9 9 8 7 7 6 6 8 7 6 4 2 1 1 0 0 1 1 0 0
8 8 11 14 16 16 14 14 13 12 11 10 10 10 10 12 13 15 15 13 12 9 8 8 9 9 9 9 8 7 6 6 5 5 4 3 2 1 0 0 0 0 0
10 9 10 12 15 16 15 15 14 13 11 10 9 9 10 11 12 13 13 13 12 9 6 6 6 8 8 9 10 7 5 4 3 4 4 3 3 2 1 0 0 0 0
9 8 7 9 13 15 15 14 13 11 10 9 8 9 9 9 10 10 10 11 10 7 5 5 6 6 7 8 9 8 5 3 2 2 2 3 3 2 1 0 0 0 0
8 7 6 6 8 11 11 10 9 9 8 6 7 7 8 8 8 8 7 7 7 5 3 4 5 5 6 7 8 7 5 4 2 2 2 2 2 2 1 1 1 0 0
7 6 4 4 5 6 6 6 7 8 7 5 5 6 7 6 6 5 4 5 5 3 2 3 4 5 5 5 5 6 6 5 4 3 2 2 2 2 2 2 2 1 1
6 4 2 2 3 4 4 4 6 9 7 6 6 6 5 5 4 4 2 2 2 1 1 3 4 4 4 4 4 5 5 5 5 4 3 4 3 2 3 3 2 1 1